Flag for Myanmar Weather past 2 weeks in Yangon, Myanmar

Now
91 °F

Scattered clouds.


Feels Like: 111 °F
Forecast: 76 / 88 °F
Wind: 6 mph from Northwest

Location: Rangoon Airport

Current Time: Sep 23, 2014 at 2:53:43 PM

Latest Report: Sep 23, 2014 at 2:30 PM


Visibility: 5 mi

Pressure: 29.77 "Hg

Humidity: 71%

Dew point: 81 °F

Location of YangonLocation

Historic Weather in Yangon — Graph

°F

Yangon temperature yesterday

Maximum temperature yesterday: 90 °F (at 2:00 PM)
Minimum temperature yesterday: 79 °F (at 12:00 AM)
Average temperature yesterday: 83 °F

Past Weeks' High & Low Weather Summary

 TemperatureHumidityPressure
High91 °F (Sep 23, 1:00 PM)100% (Sep 9, 12:00 PM)29.92 "Hg (Sep 9, 12:00 PM)
Low75 °F (Sep 18, 9:30 PM)70% (Sep 10, 11:00 AM)29.56 "Hg (Sep 16, 3:30 PM)
Average82 °F87%29.77 "Hg
* Reported Sep 8 1:30 PM — Sep 23 1:30 PM, Yangon, Weather by CustomWeather, © 2014

Note: Actual official high and low records may vary slightly from our data, if they occured in-between our weather recording intervals... More about our weather records

Advertising

Yangon weather history for previous 24 hours

 ConditionsComfort  
Time TempWeatherWind HumidityBarometerVisibility
1:30 PM
Sep 23
90 °FScattered clouds.6 mph75%29.77 "Hg5 mi
1:00 PM91 °FScattered clouds.6 mph71%29.80 "Hg5 mi
12:30 PM88 °FScattered clouds.6 mph75%29.80 "Hg5 mi
12:00 PM88 °FScattered clouds.6 mph70%29.83 "Hg5 mi
11:30 AM86 °FScattered clouds.6 mph75%29.83 "Hg5 mi
11:00 AM86 °FScattered clouds.No wind75%29.83 "Hg5 mi
10:30 AM84 °FScattered clouds.5 mph84%29.86 "Hg4 mi
10:00 AM84 °FScattered clouds.8 mph84%29.86 "Hg4 mi
9:30 AM82 °FScattered clouds.6 mph84%29.86 "Hg4 mi
9:00 AM82 °FScattered clouds.6 mph84%29.86 "Hg4 mi
7:00 AM79 °FPartly sunny.2 mph94%29.83 "Hg4 mi
6:30 AM79 °FPartly sunny.5 mph94%29.80 "Hg4 mi
6:00 AM79 °FPassing clouds.3 mph94%29.80 "Hg4 mi
5:30 AM79 °FPassing clouds.2 mph94%29.80 "Hg4 mi
5:00 AM79 °FPassing clouds.2 mph94%29.80 "Hg4 mi
12:00 AM79 °FPassing clouds.2 mph94%29.83 "Hg4 mi
11:30 PM
Sep 22
79 °FPassing clouds.3 mph94%29.86 "Hg4 mi
10:30 PM81 °FPassing clouds.2 mph94%29.86 "Hg4 mi
10:00 PM81 °FPassing clouds.2 mph94%29.86 "Hg4 mi
9:00 PM79 °FPassing clouds.5 mph94%29.83 "Hg4 mi
8:00 PM81 °FPassing clouds.5 mph94%29.83 "Hg4 mi
7:00 PM81 °FPassing clouds.3 mph94%29.80 "Hg4 mi
6:00 PM81 °FPartly sunny.2 mph94%29.80 "Hg4 mi
5:30 PM82 °FMostly cloudy.3 mph94%29.80 "Hg4 mi
5:00 PM82 °FDrizzle. Mostly cloudy.7 mph94%29.80 "Hg4 mi
4:30 PM86 °FMostly cloudy.7 mph75%29.80 "Hg4 mi
4:00 PM86 °FPartly sunny.7 mph75%29.80 "Hg4 mi
3:30 PM86 °FPartly sunny.6 mph75%29.80 "Hg4 mi
3:00 PM86 °FDrizzle. Partly sunny.6 mph75%29.80 "Hg4 mi
2:30 PM90 °FPartly sunny.3 mph71%29.80 "Hg4 mi
2:00 PM90 °FPartly sunny.3 mph71%29.80 "Hg4 mi
Weather by CustomWeather, © 2014

See weather overviewHow to use our weather pages